Regional Weather Roundup
Issued by NWS Goodland, KS

Home | Current Version | Previous Version | Text Only | Print | Product List | Glossary On
Versions: 1 2 3 4 5 6 7 8 9 10 11 12 13 14 15 16 17 18 19 20 21 22 23 24 25 26 27 28 29 30 31 32 33 34 35 36 37 38 39 40 41 42 43 44 45 46 47 48 49 50
000
ASUS43 KGLD 021908
RWRGLD

GOODLAND FORECAST AREA HOURLY WEATHER ROUNDUP
NATIONAL WEATHER SERVICE GOODLAND KS
1200 PM MST MON MAR 02 2015

...OFFICIAL OBSERVATIONS...

CITY           SKY/WX    TMP DP  RH WIND       PRES   REMARKS
GOODLAND KS    CLOUDY    29  22  75 S23G33    30.01F WCI  15
HILL CITY KS   PTSUNNY   35  21  56 S20G28    30.19F
IMPERIAL NEB     N/A     32  19  58 S18G28    30.02F
MCCOOK NEB     CLOUDY    37  20  50 S18G28    30.10F
AKRON CO       NOT AVBL
BURLINGTON CO  CLOUDY    28  23  81 S28G35    29.96F WCI  13
LIMON CO       LGT SNOW  26  24  92 S18G28    29.88F VSB 3/4 WCI  13
$$

...UNOFFICIAL OBSERVATIONS...

CITY           SKY/WX    TMP DP  RH WIND       PRES   REMARKS
COLBY KS       CLOUDY    30  27  86 SE25      30.07F WCI  16
GOVE KS          N/A     31  32 100 MISG        N/A
LENORA KS        N/A     33  32  96 S18         N/A
NORTON KS      MOSUNNY   36  16  44 SE21G30   30.14F
SHARON SPRINGS   N/A     29  26  86 S25         N/A  WCI  15
KIT CARSON CO    N/A     26  24  90 MISG        N/A
YUMA CO          N/A     30  23  74 N15G25      N/A  WCI  19
$$


USA.gov is the U.S. government's official web portal to all federal, state and local government web resources and services.